Regional Weather Roundup
Issued by NWS Charleston, SC

Current Version | Previous Version | Graphics & Text | Print | Product List | Glossary On
Versions: 1 2 3 4 5 6 7 8 9 10 11 12 13 14 15 16 17 18 19 20 21 22 23 24 25 26 27 28 29 30 31 32 33 34 35 36 37 38 39 40 41 42 43 44 45 46 47 48 49 50
000 ASUS42 KCHS 300411 RWRCHS REGIONAL WEATHER ROUNDUP NATIONAL WEATHER SERVICE CHARLESTON SC 1100 PM EST THU JAN 29 2015 NOTE: "FAIR" INDICATES FEW OR NO CLOUDS BELOW 12,000 FEET WITH NO SIGNIFICANT WEATHER AND/OR OBSTRUCTIONS TO VISIBILITY. NOT ALL STATIONS ARE QUALITY CONTROLLED BY THE NATIONAL WEATHER SERVICE. USE DATA WITH CAUTION...ESPECIALLY DEWPOINT OBSERVATIONS. SCZ027-030-031-034>040-042>050-300500- ...SOUTHEAST SOUTH CAROLINA... CITY SKY/WX TMP DP RH WIND PRES REMARKS N CHARLESTON CLOUDY 49 43 80 CALM 30.17S WATERFRONT PRK N/A 52 N/A N/A CALM N/A MOUNT PLEASANT FAIR 52 46 82 CALM 30.17R PINOPOLIS N/A 52 45 76 VRB3 30.09S MONCKS CORNER CLOUDY 50 45 81 SW3 30.16S SUMMERVILLE CLOUDY 48 45 87 CALM 30.17S BEAUFORT MCAS CLOUDY 51 46 83 SW3 30.18R BEAUFORT ARPT FAIR 52 48 87 SW7 30.18R HILTON HEAD IS CLOUDY 54 48 82 S7 30.18F WALTERBORO NOT AVBL ALLENDALE MOCLDY 50 39 66 CALM 30.15F ...SOUTHERN MIDLANDS AND PEE DEE... CITY SKY/WX TMP DP RH WIND PRES REMARKS GEORGETOWN NOT AVBL KINGSTREE NOT AVBL ORANGEBURG LGT RAIN 48 39 71 S6 30.15S BARNWELL MOCLDY 52 37 58 SW3 30.15F AIKEN FAIR 46 34 61 S5 30.14F MANNING MOCLDY 52 37 58 S5 30.15S COLUMBIA CLOUDY 53 31 42 SW8 30.11F SUMTER CLOUDY 45 37 73 S7 30.11F FLORENCE CLOUDY 49 37 63 SW8 30.12F MYRTLE BEACH CLOUDY 52 43 71 SW9 30.16S N MYRTLE BEACH CLOUDY 51 42 71 SW8 30.13F $$ GAZ063-065-086>088-099>101-113>116-118-119-134>141-150-300500- ...SOUTHEAST GEORGIA... CITY SKY/WX TMP DP RH WIND PRES REMARKS SAVANNAH ARPT CLOUDY 50 43 77 S5 30.18S HUNTER AAF CLOUDY 51 47 84 S6 30.16R FORT STEWART CLOUDY 49 45 84 VRB1 30.16F STATESBORO CLOUDY 48 42 81 S3 30.17F SYLVANIA MOCLDY 47 40 76 CALM 30.17F CLAXTON FAIR 45 43 93 CALM 30.18R ...CSRA...CENTRAL AND FAR SOUTHEAST GEORGIA... CITY SKY/WX TMP DP RH WIND PRES REMARKS THOMSON PTCLDY 50 34 55 S3 30.16F AUGUSTA-BUSH MOCLDY 46 33 60 S3 30.14F AUGUSTA-DANIEL CLOUDY 52 30 43 S6 30.13F SWAINSBORO MOCLDY 54 23 30 CALM 30.16S VIDALIA CLOUDY 54 36 50 SW7 30.17S EASTMAN FAIR 55 35 46 SW6 30.19F HAZLEHURST CLOUDY 54 37 51 SW3 30.17R ALMA MOCLDY 50 37 61 SW6 30.19S WAYCROSS PTCLDY 54 42 63 W6 30.20R JESUP FAIR 50 46 87 CALM 30.20R BAXLEY FAIR 54 37 54 SW3 30.18S BRUNSWICK MOCLDY 52 46 82 W3 30.19S SAINT SIMONS CLOUDY 53 49 86 SW10 30.18F $$ SCZ027-028-034-036>038-045-046-048>050-GAZ119-141-300500- ...LAKE AND SUPPLEMENTAL COASTAL OBSERVATIONS... STATION/POSITION TIME TEMP WIND PRES WAVE SWELL AIR SEA DIR/SP/G HT/PER HT/PER/DIR (UTC) (F) (DEG/KT/KT) (MB) (FT/S) (FT/S/D) UPR LAKE MARION NOT AVBL WINYAH BAY NOT AVBL LAKE MURRAY 0300 52 230/ 7/ 9 1019.6F ACE BASIN NERRS NOT AVBL FORT PULASKI 0300 51 52 200/ 5/ 7 1022.1F SAPELO ISLAND 0300 52 190/ 5 1022.0S $$ ANZ835-935-AMZ111-154-330-350-352-354-370-450-454-472-300500- ...C-MAN AND BUOY OBSERVATIONS... STATION/POSITION TIME TEMP WIND PRES WAVE SWELL AIR SEA DIR/SP/G HT/PER HT/PER/DIR (UTC) (F) (DEG/KT/KT) (MB) (FT/S) (FT/S/D) BUOY 41004 0350 63 68 230/ 19/ 23 1020.6F 4/ 4 2/10 BUOY 41008 0350 56 54 210/ 12/ 12 1021.8F 3/12 2/ 90/12 FOLLY BEACH CMAN 0300 53 210/ 8/ 9 1021.9R CAPERS NEARSHORE 0300 53 220/ 8/ 10 N/A FRIPP NEARSHORE 0300 54 340/ 10/ 10 1021.0F STATION/POSITION TIME TEMP WIND PRES WAVE SWELL AIR SEA DIR/SP/G HT/PER HT/PER/DIR (UTC) (F) (DEG/KT/KT) (MB) (FT/S) (FT/S/D) 5E ST. MARYS GA 0321 56 N/A 2/12 2/ 90/12 FRYING PAN BUOY 0350 62 67 230/ 21/ 25 1020.8F 5/ 5 2/ 80/ 9 BUOY 41025 0350 57 71 230/ 21/ 27 1019.1F 4/ 9 3/ 60/ 9 CAPE LOOKOUT NC 0300 54 220/ 9/ 13 1020.0F BUOY 41002 0350 59 71 230/ 8/ 14 1023.6F 6/ 9 5/ 20/ 9 BUOY 41010 0320 65 75 310/ 4/ 8 1024.8F ST AUGUSTINE FL 0400 55 210/ 8/ 10 1023.5F $$

USA.gov is the U.S. government's official web portal to all federal, state and local government web resources and services.